Meteo Giornale » Osservazioni meteo Stati Uniti (USA) » Chester

ore: 14:15 - Osservazioni Meteo Chester
Lat. 41° 23' N Lon. 72° 30' W Alt. 127 metri s.l.m.

foschia

18 °C

Foschia

Temp. 24 Ore

18 °C

27 °C

Nord

11.1 Km/h

Dew point 18 °C

Umidità 100 %

Visibilità  2 Km

Il sole sorge alle ore 06:16

Il sole tramonta alle ore 19:23

Data e Ora Cielo e Fenomeni T °C DP °C Um. % Pres. hPa Vis. km Vento km/h
Oggi h: 14:15 foschia Foschia 18 18 100 1016 2 N 11.1
Oggi h: 13:55 coperto_pioggia Pioviggine 18 18 100 1016 2 N 11.1
Oggi h: 13:35 coperto_pioggia Pioggia 20 20 100 1016 2 E/SE 18.5
Oggi h: 13:15 nebbia Nebbia 21 21 100 1016 2 SE 11.1
Oggi h: 12:55 foschia Foschia 21 21 100 1016 5 SE 7.4
Oggi h: 12:35 foschia Foschia 21 21 100 1016 2 SE 11.1
Oggi h: 12:15 foschia Foschia 21 21 100 1016 8 SE 7.4
Oggi h: 11:55 coperto Coperto 21 21 100 1016 11 SE 9.3
Oggi h: 11:35 coperto Coperto 21 21 100 1016 14 S/SE 7.4
Oggi h: 11:15 coperto_pioggia Pioggia 22 22 100 1016 13 SE 9.3
Oggi h: 10:55 coperto_pioggia Pioggia 21 21 100 1016 8 SE 9.3
Oggi h: 10:35 coperto_pioggia Pioggia 21 21 100 1017 8 N 5.5
Oggi h: 10:15 coperto_pioggia Pioggia 21 21 100 1017 6 N 0
Oggi h: 09:55 coperto_pioggia Pioggia 21 21 100 1017 8 N 0
Oggi h: 09:35 foschia Foschia 21 21 100 1016 3 S/SE 9.3
Oggi h: 09:15 coperto_pioggia Pioviggine 21 21 100 1017 5 S 7.4
Oggi h: 08:55 foschia Foschia 21 21 100 1017 2 S/SE 11.1
Oggi h: 08:35 coperto_pioggia Pioggia 21 21 100 1017 3 S 11.1
Oggi h: 08:15 foschia Foschia 21 21 100 1017 2 S/SE 9.3
Oggi h: 07:55 foschia Foschia 20 20 100 1017 3 S/SE 9.3
Oggi h: 07:35 foschia Foschia 20 20 100 1017 5 S/SE 9.3
Oggi h: 07:15 foschia Foschia 20 20 100 1017 5 S/SE 9.3
Oggi h: 06:55 foschia Foschia 20 20 100 1017 5 S/SE 7.4
Oggi h: 06:35 coperto_pioggia Pioviggine 20 20 100 1017 2 SE 9.3
Oggi h: 06:15 foschia Foschia 20 20 100 1017 10 S 7.4
Oggi h: 05:55 foschia Foschia 20 20 100 1016 5 S/SE 9.3
Oggi h: 05:35 foschia Foschia 20 20 100 1017 6 S 9.3
Oggi h: 05:15 coperto Coperto 20 20 100 1017 11 S 7.4
Oggi h: 04:55 foschia Foschia 20 20 100 1017 8 N 0
Oggi h: 04:35 foschia Foschia 20 20 100 1017 6 N 0
Oggi h: 04:15 coperto Coperto 20 20 100 1017 10 N 0
Oggi h: 03:55 coperto Coperto 20 20 100 1017 10 N 0
Oggi h: 03:35 coperto Coperto 20 20 100 1017 14 N 0
Oggi h: 03:15 coperto Coperto 20 20 100 1017 10 N 0
Oggi h: 02:55 coperto Coperto 20 20 100 1017 10 N 0
Oggi h: 02:35 coperto Coperto 20 20 100 1018 10 N 0
Oggi h: 02:15 molto_nuvoloso Molto Nuvoloso 20 20 100 1018 10 N 0
Oggi h: 01:55 coperto_pioggia Pioggia 20 20 100 1018 10 N 0
Oggi h: 01:35 coperto Coperto 20 20 100 1018 10 N 0
Oggi h: 01:15 coperto Coperto 20 19 93 1018 10 N 0
Oggi h: 00:55 coperto Coperto 20 19 93 1018 10 N 0
Oggi h: 00:35 coperto Coperto 20 19 93 1018 10 N 0
Oggi h: 00:15 coperto Coperto 20 19 93 1018 10 N 0
Ieri h: 23:55 coperto Coperto 20 19 93 1019 10 N 0
Ieri h: 23:35 coperto Coperto 20 19 93 1019 10 N 0
Ieri h: 23:15 coperto Coperto 20 19 93 1019 10 N 0
Ieri h: 22:55 coperto Coperto 20 19 93 1019 10 N 5.5
Ieri h: 22:35 coperto Coperto 20 19 93 1019 14 N 0
Ieri h: 22:15 coperto Coperto 20 19 93 1019 13 N 5.5
Ieri h: 21:55 coperto Coperto 20 18 88 1019 14 S/SE 7.4
Ieri h: 21:35 coperto Coperto 20 18 88 1019 14 N 5.5
Ieri h: 21:15 molto_nuvoloso Molto Nuvoloso 20 18 88 1019 10 N 5.5
Ieri h: 20:55 molto_nuvoloso Molto Nuvoloso 20 18 88 1019 10 N 5.5
Ieri h: 20:35 nuvoloso Nuvoloso 20 18 88 1019 10 N 0
Ieri h: 20:15 coperto Coperto 20 17 82 1019 10 N 0
Ieri h: 19:55 molto_nuvoloso Molto Nuvoloso 21 17 77 1019 10 S/SE 7.4
Ieri h: 19:35 molto_nuvoloso Molto Nuvoloso 21 17 77 1019 10 S 7.4
Ieri h: 19:15 molto_nuvoloso Molto Nuvoloso 21 17 77 1019 10 N 5.5
Ieri h: 18:55 nuvoloso Nuvoloso 21 17 77 1019 10 N 0
Ieri h: 18:35 nuvoloso Nuvoloso 22 17 73 1019 10 N 0
Ieri h: 18:15 nuvoloso Nuvoloso 22 17 73 1019 14 N 5.5
Ieri h: 17:55 nuvoloso Nuvoloso 22 17 73 1019 10 S/SE 7.4
Ieri h: 17:35 nuvoloso Nuvoloso 23 17 68 1019 10 S/SE 11.1
Ieri h: 17:15 nuvoloso Nuvoloso 24 17 64 1019 14 S/SE 14.8
Ieri h: 16:55 poco_nuvoloso Poco Nuvoloso 25 17 61 1019 10 S/SE 13
Ieri h: 16:35 poco_nuvoloso Poco Nuvoloso 25 16 57 1019 10 S/SE 13
Ieri h: 16:15 poco_nuvoloso Poco Nuvoloso 26 14 47 1019 14 S 11.1
Ieri h: 15:55 poco_nuvoloso Poco Nuvoloso 25 14 50 1019 14 S 13
Ieri h: 15:35 poco_nuvoloso Poco Nuvoloso 26 14 47 1020 10 S/SE 11.1
Ieri h: 15:15 sereno Sereno 25 14 50 1020 10 S/SE 13
Ieri h: 14:55 sereno Sereno 26 14 47 1020 14 S/SE 14.8
Ieri h: 14:35 sereno Sereno 27 14 44 1020 10 N 0